Weather Roundup
Issued by NWS

Home | Current Version | Previous Version | Graphics & Text | Print | Product List | Glossary Off
Versions: 1 2 3 4 5 6 7 8 9 10 11 12 13 14 15 16 17 18 19 20 21 22 23 24 25 26 27 28 29 30 31 32 33 34 35 36 37 38 39 40 41 42 43 44 45 46 47 48 49 50

000
NZUS93 KARX 280059
HRRWXR

CURRENT HOURLY OBSERVATIONS ACROSS
MUCH OF THE UPPER MISSISSIPPI VALLEY
NATIONAL WEATHER SERVICE LA CROSSE WI
800 PM CDT SAT MAY 27 2017


...SOUTHEAST MINNESOTA...


CITY           SKY/WX    TMP DP  RH WIND       PRES   REMARKS
ROCHESTER      CLOUDY    64  51  62 CALM      29.90S
ROCHESTER/MAYO CLOUDY    66  47  49 SE3       29.90S
WINONA         DRIZZLE   61  55  82 CALM      29.89S
AUSTIN         MOCLDY    64  46  52 CALM      29.89F
ALBERT LEA     CLOUDY    70  46  43 CALM      29.89S
DODGE CENTER   CLOUDY    64  39  39 CALM      29.90S
PRESTON        LGT RAIN  60  55  83 CALM      29.91S
OWATONNA       PTCLDY    63  46  55 CALM      29.89S
FARIBAULT      CLEAR     66  46  48 CALM      29.88F
$$

...ELSEWHERE IN MINNESOTA...


CITY           SKY/WX    TMP DP  RH WIND       PRES   REMARKS
MINNEAPOLIS    MOCLDY    70  46  42 SW7       29.86S
INTNL FALLS    MOCLDY    67  39  35 W8        29.72F
DULUTH         PTCLDY    68  42  38 SW8       29.79S
RED WING       CLEAR     68  43  40 CALM      29.87R
REDWOOD FALLS  CLOUDY    70  42  36 W9        29.86R
MANKATO        CLEAR     69  45  41 S3        29.88S
WORTHINGTON    LGT RAIN  64  49  57 W7        29.92R
FAIRMONT       CLEAR     68  43  40 CALM      29.89F
$$

...SOUTHWEST WISCONSIN...


CITY           SKY/WX    TMP DP  RH WIND       PRES   REMARKS
LA CROSSE      LGT RAIN  62  56  80 N3        29.88S
PRAIRIE DU CHI LGT RAIN  65  60  82 CALM      29.87S
BOSCOBEL       LGT RAIN  65  59  81 CALM      29.87F
LONE ROCK      NOT AVBL
PLATTEVILLE    MOCLDY    68  64  87 NW3       29.88S
FORT MC COY    LGT RAIN  65  52  61 W5        29.90R
MAUSTON-NEW LI CLOUDY    69  56  63 W7        29.86S
VIROQUA        CLOUDY    64  53  66 SW5       29.89F
WIS DELLS      CLOUDY    68  53  59 CALM      29.87S
$$

...ELSEWHERE IN WISCONSIN...


CITY           SKY/WX    TMP DP  RH WIND       PRES   REMARKS
MILWAUKEE      CLOUDY    64  52  64 SE6       29.86S
MADISON        CLOUDY    70  55  59 W3        29.85S
GREEN BAY      MOCLDY    72  60  66 S6        29.82R
EAU CLAIRE     NOT AVBL
BLACK RVR FLS  CLOUDY    64  52  64 W5        29.88R
MEDFORD        CLOUDY    64  50  61 W3        29.87S
WAUSAU         CLOUDY    65  49  56 W7        29.84S
WIS RAPIDS     CLOUDY    68  54  60 CALM      29.87R
MARSHFIELD     CLOUDY    64  51  62 W6        29.86S
RICE LAKE      CLOUDY    65  50  58 SW8       29.88R
$$

...NORTHEAST IOWA...


CITY           SKY/WX    TMP DP  RH WIND       PRES   REMARKS
WATERLOO       CLOUDY    60  54  80 NE7       29.86F
DUBUQUE        CLOUDY    61  58  90 N12       29.86F
DECORAH        CLOUDY    61  57  88 N5        29.88S
MASON CITY     CLEAR     65  48  54 SE3       29.91R
CHARLES CITY   CLOUDY    63  57  82 N6        29.89F
OELWEIN        CLOUDY    63  57  82 N7        29.88F
$$

...ELSEWHERE IN IOWA...


CITY           SKY/WX    TMP DP  RH WIND       PRES   REMARKS
DES MOINES     MOCLDY    65  56  72 NE7       29.86F
IOWA CITY      CLOUDY    68  63  84 N10       29.83F
FORT DODGE     CLEAR     63  48  59 E6        29.90F
MARSHALLTOWN   LGT RAIN  60  56  86 NE12      29.85F
CEDAR RAPIDS   CLOUDY    62  62 100 N10       29.83F
$$

...NORTHERN ILLINOIS...


CITY           SKY/WX    TMP DP  RH WIND       PRES   REMARKS
CHICAGO-OHARE  CLOUDY    70  53  54 E7        29.84F
CHICAGO-MIDWAY CLOUDY    66  55  67 E7        29.84F
MOLINE         CLOUDY    72  62  71 NE7       29.80F
ROCKFORD       CLOUDY    74  62  66 CALM      29.85F
PEORIA         MOCLDY    73  63  70 E8        29.76F
$$

NOTE: "FAIR" INDICATES FEW OR NO CLOUDS BELOW 12,000 FEET WITH NO
SIGNIFICANT WEATHER AND/OR OBSTRUCTIONS TO VISIBILITY. WIND
SPEEDS ARE IN MILES-PER-HOUR.




USA.gov is the U.S. government's official web portal to all federal, state and local government web resources and services.